Location: Waco, TX
(31.5480°N, 97.1670°W)
Time: 20:25:33
(UTC-05:00)

ISS - Pass Details

Date: 15 September 2018
Orbit: 403 x 408 km, 51.6° (Epoch: 25 September)

Event Time Altitude Azimuth Distance (km) Brightness Sun altitude
Rises 05:42:16 0° 334° (NNW) 2,322 - -19.8°
Exits shadow 05:43:11 - 340° (NNW) 2,021 -0.3 -19.6°
Reaches altitude 10° 05:45:21 10° 5° (N) 1,458 -0.8 -19.1°
Maximum altitude 05:46:50 13° 32° (NNE) 1,315 -0.6 -18.8°
Drops below altitude 10° 05:48:16 10° 59° (ENE) 1,447 0.1 -18.5°
Sets 05:51:22 0° 91° (E) 2,310 1.4 -17.9°
